Change the Weather History Date:

Thursday, May 9, 2013

  Actual Average (KPBG) Record (KPBG)
Temperature  
Mean Temperature 68 °F 54 °F  
Max Temperature 79 °F 66 °F 94 °F (1979)
Min Temperature 59 °F 43 °F 27 °F (1956)
Cooling Degree Days 3 0  
Month to date cooling degree days 0  
Year to date cooling degree days 0  
Growing Degree Days 18 (Base 50)    
Moisture  
Dew Point 51 °F    
Average Humidity 54    
Maximum Humidity 93    
Minimum Humidity 27    
Precipitation  
Precipitation 0.00 in - 1.57 in (1964)
Month to date precipitation  
Year to date precipitation  
Sea Level Pressure  
Sea Level Pressure 29.88 in    
Wind  
Wind Speed 4 mph (SSW)    
Max Wind Speed 12 mph    
Max Gust Speed 21 mph    
Visibility 10 miles    
Events Rain    
T = Trace of Precipitation, MM = Missing Value Source: NWS Daily Summary

Daily Weather History Graph

Daily Weather History Graph

Search for Another Location

Airport or City:

Trip Planner

Search our weather history database for the weather conditions in past years. The results will help you decide how hot, cold, wet, or windy it might be!

Date:

Astronomy

May. 09, 2013 Rise Set
Actual Time 5:30 AM EDT 8:07 PM EDT
Civil Twilight 4:57 AM EDT 8:41 PM EDT
Nautical Twilight 4:15 AM EDT 9:23 PM EDT
Astronomical Twilight 3:27 AM EDT 10:12 PM EDT
Moon 5:14 AM EDT (5/9) 8:00 PM EDT (5/9)
Length of Visible Light 15h 44m
Length of Day
14h 37m
Waning Crescent, 0% of the Moon is Illuminated
May 9
Waning Crescent
May 9
New
May 18
First Quarter
May 25
Full
May 31
Last Quarter

Hourly Weather History & Observations

Time (EDT) Temp. Dew Point Humidity Pressure Visibility Wind Dir Wind Speed Gust Speed Precip Events Conditions
12:15 AM 64.2 °F 55.8 °F 74% 30.00 in 10.0 mi Calm Calm - N/A Rain Light Rain
2:35 AM 60.3 °F 57.4 °F 90% 29.97 in 5.0 mi Calm Calm - N/A   Overcast
2:55 AM 60.4 °F 57.7 °F 91% 29.96 in 7.0 mi Calm Calm - N/A   Drizzle
3:15 AM 60.3 °F 57.6 °F 91% 29.95 in 7.0 mi Calm Calm - N/A Rain Light Rain
5:15 AM 59.4 °F 57.2 °F 93% 29.93 in 10.0 mi East 3.5 mph - N/A Rain Rain
5:35 AM 59.4 °F 56.7 °F 91% 29.93 in 10.0 mi SE 3.5 mph - N/A   Mostly Cloudy
6:15 AM 59.4 °F 56.7 °F 91% 29.94 in 10.0 mi Calm Calm - N/A   Scattered Clouds
9:15 AM 69.4 °F 59.5 °F 71% 29.93 in 10.0 mi SSW 8.1 mph - N/A   Scattered Clouds
9:35 AM 69.4 °F 57.9 °F 67% 29.93 in 10.0 mi SSW 8.1 mph - N/A   Scattered Clouds
10:15 AM 71.6 °F 56.1 °F 58% 29.92 in 10.0 mi South 8.1 mph - N/A   Scattered Clouds
10:35 AM 73.9 °F 57.0 °F 55% 29.92 in 10.0 mi SW 6.9 mph - N/A   Scattered Clouds
10:55 AM 74.5 °F 55.2 °F 51% 29.92 in 10.0 mi South 9.2 mph - N/A   Scattered Clouds
11:15 AM 74.3 °F 57.4 °F 55% 29.92 in 10.0 mi SSW 5.8 mph - N/A   Scattered Clouds
11:35 AM 74.5 °F 56.1 °F 53% 29.91 in 10.0 mi SW 3.5 mph - N/A   Scattered Clouds
11:55 AM 74.5 °F 55.4 °F 51% 29.91 in 10.0 mi WSW 8.1 mph - N/A   Scattered Clouds
12:15 PM 74.5 °F 51.4 °F 44% 29.91 in 10.0 mi SSW 10.4 mph 17.3 mph N/A   Clear
12:35 PM 74.5 °F 51.3 °F 44% 29.90 in 10.0 mi SSW 6.9 mph - N/A   Clear
12:55 PM 74.5 °F 49.8 °F 42% 29.90 in 10.0 mi SSW 10.4 mph 17.3 mph N/A   Clear
1:15 PM 74.5 °F 47.3 °F 38% 29.89 in 10.0 mi South 11.5 mph 20.7 mph N/A   Scattered Clouds
1:35 PM 74.5 °F 46.6 °F 37% 29.88 in 10.0 mi SSW 8.1 mph 16.1 mph N/A   Scattered Clouds
1:55 PM 77.0 °F 46.2 °F 34% 29.87 in 10.0 mi SSW 8.1 mph - N/A   Scattered Clouds
2:15 PM 77.0 °F 43.2 °F 30% 29.86 in 10.0 mi SSW 6.9 mph - N/A   Clear
2:55 PM 77.0 °F 40.1 °F 27% 29.85 in 10.0 mi SSW 10.4 mph 16.1 mph N/A   Clear
3:35 PM 75.2 °F 41.4 °F 30% 29.84 in 10.0 mi SSW 8.1 mph - N/A   Mostly Cloudy
3:55 PM 74.5 °F 43.7 °F 33% 29.84 in 10.0 mi South 5.8 mph - N/A   Overcast
4:15 PM 74.5 °F 41.5 °F 31% 29.84 in 10.0 mi South 6.9 mph - N/A   Overcast
4:35 PM 74.5 °F 44.6 °F 34% 29.84 in 10.0 mi SSW 3.5 mph - N/A   Overcast
4:55 PM 74.5 °F 43.2 °F 33% 29.84 in 10.0 mi SW 6.9 mph - N/A   Overcast
5:15 PM 74.5 °F 43.2 °F 33% 29.84 in 10.0 mi South 5.8 mph - N/A   Mostly Cloudy
5:35 PM 74.5 °F 45.7 °F 36% 29.84 in 10.0 mi South 6.9 mph - N/A   Scattered Clouds
5:55 PM 74.5 °F 48.2 °F 39% 29.83 in 10.0 mi SW 3.5 mph - N/A   Mostly Cloudy
6:15 PM 74.5 °F 48.6 °F 40% 29.83 in 10.0 mi SW 3.5 mph - N/A   Overcast
6:35 PM 72.0 °F 46.8 °F 41% 29.83 in 10.0 mi Calm Calm - N/A   Overcast
6:55 PM 70.7 °F 47.3 °F 43% 29.84 in 10.0 mi Calm Calm - N/A   Overcast
7:15 PM 69.4 °F 46.9 °F 45% 29.84 in 10.0 mi Calm Calm - N/A   Overcast
7:35 PM 69.4 °F 47.7 °F 46% 29.85 in 10.0 mi Calm Calm - N/A   Overcast
7:55 PM 69.4 °F 49.3 °F 49% 29.86 in 10.0 mi SSW 4.6 mph - N/A   Mostly Cloudy
8:35 PM 67.6 °F 51.3 °F 56% 29.86 in 10.0 mi SSE 3.5 mph - N/A   Clear
8:55 PM 64.9 °F 50.9 °F 60% 29.87 in 10.0 mi SSE 5.8 mph - N/A   Clear
9:15 PM 67.1 °F 52.2 °F 59% 29.87 in 10.0 mi South 3.5 mph - N/A   Clear
9:35 PM 67.1 °F 51.8 °F 58% 29.87 in 10.0 mi South 4.6 mph - N/A   Mostly Cloudy
9:55 PM 66.7 °F 52.2 °F 59% 29.87 in 10.0 mi South 4.6 mph - N/A   Overcast
10:15 PM 64.4 °F 50.4 °F 60% 29.87 in 10.0 mi South 4.6 mph - N/A   Overcast
10:35 PM 64.4 °F 50.2 °F 60% 29.87 in 10.0 mi SW 4.6 mph - N/A   Overcast
10:55 PM 64.4 °F 50.5 °F 61% 29.87 in 10.0 mi SW 3.5 mph - N/A   Overcast
11:15 PM 64.4 °F 51.6 °F 63% 29.87 in 10.0 mi South 3.5 mph - N/A   Overcast
11:35 PM 62.8 °F 50.9 °F 65% 29.87 in 10.0 mi South 3.5 mph - N/A   Scattered Clouds
11:55 PM 61.9 °F 51.3 °F 68% 29.87 in 10.0 mi South 3.5 mph - N/A   Clear